Location: Newark
(5.8900°S, 42.6378°W)
Time: 13:12:47
(UTC+00:00)

Transit 2A Rocket - All Passes

Search period start: 17 September 2019 00:00
Search period end: 27 September 2019 00:00
Orbit: 592 x 911 km, 66.7° (Epoch: 16 September)

Date Brightness Start Highest point End Pass type
(mag) Time Alt. Az. Time Alt. Az. Time Alt. Az.
17 Sep - 02:08:30 10° N 02:12:42 48° ENE 02:17:12 10° SE night (unlit)
17 Sep - 12:53:41 10° SSE 12:57:47 19° ESE 13:01:48 10° ENE daylight
17 Sep - 14:34:45 10° SW 14:40:18 38° WNW 14:45:37 10° N daylight
18 Sep - 01:27:03 10° NNE 01:30:20 21° ENE 01:33:45 10° ESE night (unlit)
18 Sep - 03:09:42 10° WNW 03:12:38 17° WSW 03:15:42 10° SSW night (unlit)
18 Sep - 13:51:48 10° SSW 13:57:53 75° WNW 14:03:40 10° NNE daylight
19 Sep - 02:25:58 10° NW 02:30:04 38° WSW 02:34:27 10° S night (unlit)
19 Sep - 13:09:26 10° S 13:15:24 56° ESE 13:21:05 10° NNE daylight
19 Sep - 14:55:42 10° W 14:57:35 11° WNW 14:59:28 10° NW daylight
20 Sep - 01:43:12 10° NNW 01:47:34 88° ENE 01:52:18 10° SSE night (unlit)
20 Sep - 12:27:42 10° S 12:32:51 29° ESE 12:37:49 10° NE daylight
20 Sep - 14:10:28 10° SW 14:15:13 24° WNW 14:19:46 10° NNW daylight
21 Sep - 01:01:10 10° N 01:05:10 36° ENE 01:09:27 10° SE night (unlit)
21 Sep - 11:47:01 10° SE 11:50:14 15° ESE 11:53:22 10° E daylight
21 Sep - 13:27:02 10° SW 13:32:50 48° WNW 13:38:20 10° N daylight
22 Sep - 00:20:11 10° NE 00:22:50 16° ENE 00:25:34 10° ESE night (unlit)
22 Sep - 02:01:32 10° WNW 02:05:02 23° WSW 02:08:46 10° SSW night (unlit)
22 Sep - 12:44:18 10° SSW 12:50:23 87° ESE 12:56:10 10° NNE daylight
23 Sep - 01:18:12 10° NW 01:22:29 52° WSW 01:27:08 10° S night (unlit)
23 Sep - 12:02:07 10° S 12:07:53 44° ESE 12:13:22 10° NE daylight
23 Sep - 13:46:51 10° WSW 13:50:07 15° WNW 13:53:18 10° NW daylight
24 Sep - 00:35:42 10° N 00:40:02 65° ENE 00:44:44 10° SSE night (unlit)
24 Sep - 11:20:39 10° SSE 11:25:19 23° ESE 11:29:48 10° ENE daylight
24 Sep - 13:02:33 10° SW 13:07:44 30° WNW 13:12:41 10° NNW daylight
24 Sep - 23:53:56 10° NNE 23:57:40 27° ENE 00:01:37 10° SE night (unlit)
25 Sep - 01:37:48 10° W 01:40:04 14° WSW 01:42:24 10° SW night (unlit)
25 Sep - 10:40:59 10° SE 10:42:39 11° ESE 10:44:18 10° E daylight
25 Sep - 12:19:22 10° SSW 12:25:20 61° WNW 12:30:58 10° N daylight
25 Sep - 23:13:45 10° NE 23:15:19 12° ENE 23:16:55 10° E night (unlit)
26 Sep - 00:53:33 10° NW 00:57:27 30° WSW 01:01:38 10° S night (unlit)
26 Sep - 11:36:50 10° SSW 11:42:53 69° ESE 11:48:36 10° NNE daylight
